Location: Recife
(8.0585°S, 34.8848°W)
Time: 10:22:07
(UTC-03:00)

S-56A Canister/Altair - Pass Details

Date: 17 April 2026
Orbit: 633 x 2484 km, 38.9° (Epoch: 20 May)

Event Time Altitude Azimuth Distance (km) Brightness Sun altitude
Rises 14:04:09 0° 297° (WNW) 5,581 12.7 44.9°
Reaches altitude 10° 14:08:26 10° 292° (WNW) 4,318 12.4 43.9°
Maximum altitude 14:18:47 45° 223° (SW) 1,862 10.2 41.5°
Drops below altitude 10° 14:25:48 10° 151° (SSE) 2,941 10.2 39.9°
Sets 14:28:12 0° 144° (SE) 3,693 10.6 39.4°
